Regional Weather Roundup
Issued by NWS Little Rock, AR

Home | Current Version | Previous Version | Graphics & Text | Print | Product List | Glossary On
Versions: 1 2 3 4 5 6 7 8 9 10 11 12 13 14 15 16 17 18 19 20 21 22 23 24 25 26 27 28 29 30 31 32 33 34 35 36 37 38 39 40 41 42 43 44 45 46 47 48 49
192
ASUS44 KLZK 031905
RWRLZK

WEATHER ROUNDUP FOR ARKANSAS
NATIONAL WEATHER SERVICE LITTLE ROCK AR
200 PM CDT TUE MAY 03 2016

NOTE: "FAIR" INDICATES FEW OR NO CLOUDS BELOW 12,000 FEET WITH NO
SIGNIFICANT WEATHER AND/OR OBSTRUCTIONS TO VISIBILITY.

ARZ001-003-010-029-032000-
NORTHWEST ARKANSAS

CITY           SKY/WX    TMP DP  RH WIND       PRES   REMARKS
FAYETTEVILLE   MOSUNNY   63  44  50 NW8       30.08F
FORT SMITH     MOSUNNY   69  40  34 W7        30.06F
HARRISON       PTSUNNY   63  41  44 N6        30.06F
BENTONVILLE    PTSUNNY   63  36  36 CALM      30.08F
ROGERS         MOSUNNY   63  41  44 VRB3      30.07F
SILOAM SPGS    SUNNY     64  43  45 NW7       30.09F
HIGHFILL       PTSUNNY   66  45  46 N5        30.07F
SPRINGDALE     PTSUNNY   63  41  45 W9        30.09F
$$

ARZ004-005-016-032000-
NORTH CENTRAL ARKANSAS

CITY           SKY/WX    TMP DP  RH WIND       PRES   REMARKS
BATESVILLE     PTSUNNY   64  45  48 NW6       30.04F
FLIPPIN        PTSUNNY  N/A N/A N/A N8        30.02F
MTN HOME       PTSUNNY   67  41  38 VRB5      30.02F
$$

ARZ040-041-032000-
WEST CENTRAL ARKANSAS

CITY           SKY/WX    TMP DP  RH WIND       PRES   REMARKS
MENA           MOSUNNY   68  43  40 N6        30.06F
MOUNT IDA      PTSUNNY   68  45  43 VRB3      30.03F
$$

ARZ009-017-025-026-028-032000-
NORTHEAST ARKANSAS

CITY           SKY/WX    TMP DP  RH WIND       PRES   REMARKS
CORNING          N/A     64  48  55 NW5       30.02F
JONESBORO      CLOUDY    63  49  60 NW9       30.02F
NEWPORT        CLOUDY    64  48  56 CALM      30.04F
WALNUT RIDGE   PTSUNNY   63  46  55 NW3       30.03F
BLYTHEVILLE    CLOUDY    66  53  63 NW7       30.01F
NW BLYTHEVILLE PTSUNNY   63  50  63 N5        30.02F
$$

ARZ022-023-033-042-044-032000-
CENTRAL ARKANSAS

CITY           SKY/WX    TMP DP  RH WIND       PRES   REMARKS
LITTLE ROCK    PTSUNNY   67  46  47 NW5       30.05F
N LITTLE ROCK    N/A     63  48  59 N6        30.04F
JACKSONVILLE   PTSUNNY   66  47  50 NW6       30.03F
SEARCY         PTSUNNY   64  46  52 NW6       30.06F
HOT SPRINGS    PTSUNNY   67  44  43 NW6       30.05F
RUSSELLVILLE   PTSUNNY   67  44  43 VRB5      30.04F
$$

ARZ036-032000-
EAST ARKANSAS

CITY           SKY/WX    TMP DP  RH WIND       PRES   REMARKS
WEST MEMPHIS   CLOUDY    62  48  60 NW7       30.02F
$$

ARZ050-053-066-070-073-032000-
SOUTHWEST ARKANSAS

CITY           SKY/WX    TMP DP  RH WIND       PRES   REMARKS
ARKADELPHIA    FAIR      67  53  60 N9        30.05F
CAMDEN         PTSUNNY   68  46  45 NW9       30.04F
TEXARKANA      PTSUNNY   67  48  50 NE6       30.06F
EL DORADO      PTSUNNY   67  51  56 NW12      30.04F
DE QUEEN       PTSUNNY   68  47  46 NE8       30.04F
$$

ARZ056-057-069-032000-
SOUTHEAST ARKANSAS

CITY           SKY/WX    TMP DP  RH WIND       PRES   REMARKS
PINE BLUFF     CLOUDY    65  48  54 N12       30.04F
STUTTGART      CLOUDY    64  46  52 N9        30.05F
MONTICELLO     PTSUNNY   68  49  50 VRB5      30.02F

$$






USA.gov is the U.S. government's official web portal to all federal, state and local government web resources and services.